FW0788 Weather Reports


Display with metric or nautical units.
time (UTC)temp
F
wind
direction
speed
MPH
gust
MPH
rain 1hr
in
rain 24hr
in
rain mn
in
humidity
%
barometer
mb
20260905000024 56 226 0.0 0.0 0.11 0.78 0.75 95 998.5
20260904234521 56 247 0.0 0.0 0.11 0.76 0.73 95 999.0
20260904233021 56 161 0.0 0.0 0.09 0.74 0.71 95 999.3
20260904231517 55 170 0.0 0.0 0.07 0.71 0.68 94 999.6
20260904230016 55 254 0.0 0.0 0.03 0.66 0.63 94 999.7
20260904224515 55 279 0.0 0.0 0.06 0.65 0.62 94 1000.1
20260904223012 55 279 0.0 0.0 0.07 0.65 0.61 94 1000.4
20260904221511 55 279 0.0 0.0 0.08 0.64 0.61 94 1000.5
20260904220008 55 329 0.0 0.0 0.09 0.63 0.60 94 1000.8
20260904214507 55 331 0.0 0.0 0.09 0.59 0.56 94 1001.0
20260904213008 54 236 0.0 0.0 0.12 0.56 0.54 94 1001.3
20260904211506 54 334 0.0 0.0 0.13 0.56 0.53 94 1001.0
20260904210010 54 204 0.0 0.0 0.15 0.54 0.51 94 1001.3
20260904204503 54 202 0.0 0.0 0.13 0.49 0.46 94 1001.8
20260904203102 54 219 0.0 0.0 0.14 0.46 0.43 94 1002.2
20260904201559 54 249 0.0 0.0 0.16 0.43 0.40 94 1002.3
20260904200107 55 248 0.0 0.0 0.16 0.39 0.36 94 1002.6
20260904194608 55 244 0.0 0.0 0.16 0.36 0.33 94 1002.8
20260904193052 55 211 0.0 0.0 0.16 0.31 0.28 94 1003.0
20260904191551 54 204 0.0 0.0 0.14 0.27 0.24 94 1003.1
20260904190049 54 257 0.0 0.0 0.13 0.24 0.20 94 1003.3
20260904184547 54 257 0.0 0.0 0.11 0.20 0.17 94 1003.6
20260904183043 54 257 0.0 0.0 0.07 0.16 0.13 93 1003.7
20260904181551 54 257 0.0 0.0 0.06 0.13 0.09 93 1003.7
20260904180050 54 151 0.0 0.0 0.04 0.10 0.07 93 1003.9
20260904174543 54 243 0.0 0.0 0.04 0.09 0.06 93 1004.1
20260904173041 54 187 0.0 0.0 0.04 0.09 0.06 93 1004.4
20260904171605 54 148 0.0 0.0 0.03 0.07 0.04 93 1004.6
20260904170031 54 161 0.0 0.0 0.03 0.06 0.03 93 1005.0
20260904164527 54 238 0.0 0.0 0.02 0.06 0.02 93 1005.4
20260904163025 53 240 0.0 0.0 0.02 0.05 0.02 93 1005.8
20260904161522 53 237 0.0 0.0 0.01 0.04 0.01 93 1005.9
20260904160021 52 237 0.0 0.0 0.00 0.03 0.00 93 1006.2
20260904154532 52 237 0.0 0.0 0.00 0.03 0.00 92 1006.5
20260904153015 52 237 0.0 0.0 0.00 0.03 0.00 92 1006.7
20260904151513 52 237 0.0 0.0 0.00 0.03 0.00 92 1007.0
20260904150013 52 237 0.0 0.0 0.00 0.03 0.00 92 1007.1
20260904144511 53 237 0.0 0.0 0.00 0.03 0.00 91 1007.1
20260904143015 53 237 0.0 0.0 0.00 0.03 0.00 91 1007.4
20260904141507 53 236 0.0 0.0 0.01 0.03 0.00 91 1007.7
20260904140012 53 156 0.0 0.0 0.02 0.03 0.00 90 1007.8
20260904134501 53 154 0.0 1.0 0.02 0.03 0.03 90 1008.0
20260904133115 53 165 0.0 0.0 0.02 0.03 0.03 89 1008.2
20260904131602 53 150 0.0 0.0 0.02 0.02 0.02 88 1008.4
20260904130057 54 169 0.0 0.0 0.00 0.01 0.01 85 1008.5
20260904124602 54 190 0.0 0.0 0.00 0.01 0.01 83 1008.6
20260904123057 54 136 0.0 6.0 0.00 0.01 0.01 82 1008.7
20260904121553 54 195 0.0 5.0 0.00 0.01 0.01 81 1008.9
20260904120058 53 175 0.0 4.0 0.00 0.01 0.01 82 1009.2
20260904114558 53 92 0.0 8.0 0.00 0.01 0.01 82 1009.4
20260904113049 53 186 0.0 0.0 0.00 0.01 0.01 80 1009.8
20260904111548 53 182 1.0 7.0 0.00 0.01 0.01 78 1009.6
20260904110048 54 111 0.0 11.0 0.00 0.01 0.01 76 1009.6
20260904104607 54 153 3.0 10.0 0.00 0.01 0.01 76 1009.6
20260904103046 54 65 0.0 12.0 0.00 0.01 0.01 74 1009.7
20260904101545 54 47 0.0 8.0 0.00 0.01 0.01 79 1009.6
20260904100059 54 202 0.0 7.0 0.00 0.01 0.01 81 1009.7
20260904094554 53 234 0.0 5.0 0.00 0.01 0.01 84 1009.9
20260904093043 53 233 0.0 8.0 0.00 0.01 0.01 85 1009.9
20260904091542 52 179 0.0 0.0 0.00 0.01 0.01 86 1010.1
20260904090042 51 186 0.0 0.0 0.00 0.01 0.01 87 1010.2
20260904084541 51 185 0.0 0.0 0.00 0.01 0.01 87 1010.3
20260904083044 51 178 0.0 0.0 0.00 0.01 0.01 86 1010.3
20260904081540 51 148 0.0 0.0 0.00 0.01 0.01 86 1010.0
20260904080041 51 184 0.0 0.0 0.01 0.01 0.01 87 1010.3
20260904074539 51 338 0.0 1.0 0.01 0.01 0.01 87 1010.5
20260904073038 51 151 2.0 9.0 0.01 0.01 0.01 86 1010.3
20260904071537 52 66 0.0 5.0 0.01 0.01 0.01 84 1010.2
20260904070042 54 184 0.0 13.0 0.00 0.00 0.00 80 1010.0
20260904064534 54 160 0.0 7.0 0.00 0.00 0.00 78 1009.8
20260904063040 55 174 1.0 14.0 0.00 0.00 0.00 78 1009.8
20260904061532 55 149 1.0 11.0 0.00 0.00 0.00 75 1009.8
20260904060100 55 124 0.0 7.0 0.00 0.00 0.00 74 1009.9
20260904054531 57 157 1.0 9.0 0.00 0.00 0.00 71 1009.9
20260904053057 57 137 1.0 10.0 0.00 0.00 0.00 68 1010.0
20260904051536 57 229 1.0 15.0 0.00 0.00 0.00 67 1010.0
20260904050035 58 267 2.0 17.0 0.00 0.00 0.00 64 1010.0
20260904044528 58 121 1.0 11.0 0.00 0.00 0.00 65 1010.0
20260904043026 57 141 0.0 15.0 0.00 0.00 0.00 67 1010.1
20260904041527 58 277 2.0 12.0 0.00 0.00 0.00 66 1010.2
20260904040025 58 161 2.0 15.0 0.00 0.00 0.00 63 1010.1
20260904034523 59 106 2.0 13.0 0.00 0.00 0.00 66 1010.4
20260904033022 58 180 2.0 12.0 0.00 0.00 0.00 67 1010.6
20260904031522 59 171 1.0 10.0 0.00 0.00 0.00 65 1010.7
20260904030022 59 34 2.0 16.0 0.00 0.00 0.00 61 1010.8
20260904024519 59 159 0.0 7.0 0.00 0.00 0.00 59 1011.1
20260904023016 58 205 1.0 12.0 0.00 0.00 0.00 61 1011.3
20260904021514 58 123 2.0 11.0 0.00 0.00 0.00 67 1011.7
20260904020011 57 175 3.0 14.0 0.00 0.00 0.00 65 1011.9
20260904014510 57 178 1.0 13.0 0.00 0.00 0.00 67 1012.1
20260904013007 57 151 1.0 11.0 0.00 0.00 0.00 66 1012.2
20260904011504 56 150 0.0 13.0 0.00 0.00 0.00 67 1012.2
20260904010006 56 133 5.0 13.0 0.00 0.00 0.00 68 1012.4
20260904004504 56 138 6.0 11.0 0.00 0.00 0.00 66 1012.3
20260904003057 55 153 6.0 18.0 0.00 0.00 0.00 69 1012.6
20260904001601 54 60 3.0 16.0 0.00 0.00 0.00 71 1012.6